CPA773 VHHH-VTSP

Flight info

Callsign CPA773
Flight time 3h 8m
Altitude 36000
Route PECAN V10 SIKOU/K0832S1100 A202 ASSAD/K0828F360 A202 VILAO/N0446F360 A202 RAMEI W42 MENEX Y8 SAVSA SAVSA1D
Aircraft A21N/M-SDE2E3FGHIRWXY/LB1

Departure

Time 2026-05-07 19:12
Airport Hong Kong International Airport (VHHH)

Arrival

Time 2026-05-07 22:21
Airport Phuket International Airport (VTSP)
Time Latitude Longitude Altitude Speed Heading
2026-05-07 18:17 22.31744 113.93090 38 ft 0 kts 261°
2026-05-07 18:56 22.31745 113.93096 37 ft 4 kts 259°
2026-05-07 18:56 22.31749 113.93119 37 ft 3 kts 261°
2026-05-07 18:56 22.31751 113.93146 37 ft 4 kts 282°
2026-05-07 18:57 22.31740 113.93166 37 ft 4 kts 339°
2026-05-07 18:57 22.31716 113.93175 37 ft 3 kts 341°
2026-05-07 18:57 22.31713 113.93176 37 ft 0 kts 341°
2026-05-07 19:00 22.31727 113.93171 37 ft 5 kts 341°
2026-05-07 19:01 22.31764 113.93157 37 ft 7 kts 341°
2026-05-07 19:01 22.31814 113.93138 37 ft 9 kts 341°
2026-05-07 19:01 22.31869 113.93102 37 ft 11 kts 293°
2026-05-07 19:01 22.31852 113.93019 37 ft 13 kts 249°
2026-05-07 19:02 22.31821 113.92923 37 ft 14 kts 250°
2026-05-07 19:02 22.31786 113.92815 38 ft 16 kts 250°
2026-05-07 19:02 22.31747 113.92696 38 ft 18 kts 250°
2026-05-07 19:02 22.31705 113.92566 38 ft 19 kts 251°
2026-05-07 19:03 22.31660 113.92425 38 ft 20 kts 251°
2026-05-07 19:03 22.31612 113.92275 38 ft 22 kts 251°
2026-05-07 19:03 22.31565 113.92165 38 ft 9 kts 203°
2026-05-07 19:03 22.31542 113.92116 38 ft 9 kts 256°
2026-05-07 19:04 22.31500 113.92071 38 ft 11 kts 175°
2026-05-07 19:04 22.31422 113.92096 38 ft 13 kts 161°
2026-05-07 19:04 22.31334 113.92129 38 ft 14 kts 161°
2026-05-07 19:04 22.31233 113.92166 38 ft 16 kts 161°
2026-05-07 19:05 22.31124 113.92206 37 ft 18 kts 161°
2026-05-07 19:05 22.31004 113.92251 37 ft 19 kts 160°
2026-05-07 19:05 22.30891 113.92293 36 ft 6 kts 162°
2026-05-07 19:05 22.30846 113.92309 37 ft 8 kts 162°
2026-05-07 19:06 22.30788 113.92332 37 ft 10 kts 159°
2026-05-07 19:06 22.30684 113.92239 37 ft 14 kts 252°
2026-05-07 19:06 22.30652 113.92136 37 ft 15 kts 249°
2026-05-07 19:07 22.30613 113.92021 37 ft 17 kts 250°
2026-05-07 19:07 22.30574 113.91894 37 ft 19 kts 252°
2026-05-07 19:07 22.30532 113.91756 37 ft 20 kts 252°
2026-05-07 19:07 22.30487 113.91609 38 ft 21 kts 249°
2026-05-07 19:08 22.30430 113.91453 38 ft 23 kts 251°
2026-05-07 19:08 22.30378 113.91289 38 ft 24 kts 251°
2026-05-07 19:08 22.30321 113.91112 38 ft 25 kts 251°
2026-05-07 19:08 22.30262 113.90929 38 ft 27 kts 251°
2026-05-07 19:09 22.30199 113.90732 38 ft 28 kts 251°
2026-05-07 19:09 22.30134 113.90532 37 ft 29 kts 251°
2026-05-07 19:09 22.30071 113.90337 37 ft 22 kts 251°
2026-05-07 19:09 22.30018 113.90175 37 ft 23 kts 251°
2026-05-07 19:10 22.29962 113.90002 37 ft 25 kts 251°
2026-05-07 19:10 22.29923 113.89878 37 ft 18 kts 251°
2026-05-07 19:10 22.29883 113.89760 37 ft 15 kts 235°
2026-05-07 19:10 22.29784 113.89751 37 ft 16 kts 159°
2026-05-07 19:11 22.29736 113.89769 37 ft 7 kts 162°
2026-05-07 19:11 22.29658 113.89807 35 ft 14 kts 134°
2026-05-07 19:11 22.29654 113.89910 35 ft 16 kts 70°
2026-05-07 19:11 22.29714 113.90091 36 ft 56 kts 71°
2026-05-07 19:12 22.29939 113.90791 37 ft 138 kts 71°
2026-05-07 19:12 22.30304 113.91968 294 ft 174 kts 72°
2026-05-07 19:12 22.30693 113.93191 1185 ft 173 kts 71°
2026-05-07 19:12 22.31109 113.94449 1980 ft 184 kts 71°
2026-05-07 19:13 22.31546 113.95798 2677 ft 197 kts 71°
2026-05-07 19:13 22.32014 113.97246 3358 ft 211 kts 71°
2026-05-07 19:13 22.32510 113.98786 4050 ft 223 kts 71°
2026-05-07 19:13 22.33029 114.00387 4857 ft 228 kts 71°
2026-05-07 19:14 22.33553 114.02020 5683 ft 232 kts 71°
2026-05-07 19:14 22.33906 114.03703 6458 ft 236 kts 90°
2026-05-07 19:14 22.33590 114.05439 7239 ft 239 kts 112°
2026-05-07 19:14 22.32689 114.06976 7996 ft 242 kts 133°
2026-05-07 19:15 22.31378 114.08146 8607 ft 252 kts 152°
2026-05-07 19:15 22.29705 114.08793 9019 ft 266 kts 172°
2026-05-07 19:15 22.27807 114.08902 9596 ft 275 kts 182°
2026-05-07 19:15 22.25851 114.08821 10061 ft 290 kts 183°
2026-05-07 19:16 22.23769 114.08745 10398 ft 309 kts 182°
2026-05-07 19:16 22.21549 114.08722 10738 ft 328 kts 181°
2026-05-07 19:16 22.19216 114.08727 11247 ft 340 kts 181°
2026-05-07 19:16 22.16830 114.08737 11954 ft 344 kts 181°
2026-05-07 19:17 22.14424 114.08744 12702 ft 347 kts 181°
2026-05-07 19:17 22.11997 114.08751 13420 ft 351 kts 181°
2026-05-07 19:17 22.09538 114.08757 14121 ft 355 kts 182°
2026-05-07 19:17 22.07055 114.08757 14795 ft 359 kts 182°
2026-05-07 19:18 22.04549 114.08759 15438 ft 362 kts 182°
2026-05-07 19:18 22.02015 114.08763 16080 ft 366 kts 182°
2026-05-07 19:18 21.99452 114.08773 16706 ft 370 kts 182°
2026-05-07 19:18 21.96865 114.08777 17311 ft 373 kts 182°
2026-05-07 19:19 21.94253 114.08776 17901 ft 377 kts 182°
2026-05-07 19:19 21.91619 114.08778 18476 ft 380 kts 182°
2026-05-07 19:19 21.88960 114.08789 19008 ft 384 kts 182°
2026-05-07 19:19 21.86273 114.08799 19538 ft 388 kts 182°
2026-05-07 19:20 21.83568 114.08808 20035 ft 391 kts 182°
2026-05-07 19:20 21.80826 114.08810 20528 ft 395 kts 182°
2026-05-07 19:20 21.78064 114.08810 21011 ft 399 kts 182°
2026-05-07 19:20 21.75277 114.08811 21479 ft 403 kts 182°
2026-05-07 19:21 21.72459 114.08812 21963 ft 406 kts 182°
2026-05-07 19:21 21.69660 114.08822 22427 ft 410 kts 182°
2026-05-07 19:21 21.66766 114.08830 22883 ft 413 kts 182°
2026-05-07 19:21 21.63893 114.08630 23295 ft 413 kts 191°
2026-05-07 19:22 21.61074 114.07998 23724 ft 416 kts 196°
2026-05-07 19:22 21.58256 114.07253 24125 ft 419 kts 196°
2026-05-07 19:22 21.55416 114.06492 24534 ft 422 kts 196°
2026-05-07 19:22 21.52557 114.05737 24927 ft 425 kts 196°
2026-05-07 19:23 21.49677 114.04985 25335 ft 427 kts 196°
2026-05-07 19:23 21.46777 114.04230 25731 ft 429 kts 197°
2026-05-07 19:23 21.43940 114.03252 26093 ft 429 kts 205°
2026-05-07 19:23 21.41327 114.01747 26414 ft 426 kts 218°
2026-05-07 19:24 21.39173 113.99589 26764 ft 423 kts 234°
2026-05-07 19:24 21.37649 113.96910 27081 ft 421 kts 249°
2026-05-07 19:24 21.36799 113.93918 27413 ft 421 kts 259°
2026-05-07 19:24 21.36196 113.90841 27748 ft 422 kts 260°
2026-05-07 19:25 21.35601 113.87750 28077 ft 424 kts 260°
2026-05-07 19:25 21.34986 113.84650 28404 ft 426 kts 259°
2026-05-07 19:25 21.34350 113.81543 28710 ft 428 kts 259°
2026-05-07 19:25 21.33701 113.78423 29006 ft 430 kts 259°
2026-05-07 19:26 21.33046 113.75285 29315 ft 431 kts 259°
2026-05-07 19:26 21.32391 113.72143 29621 ft 433 kts 259°
2026-05-07 19:26 21.31730 113.68982 29925 ft 435 kts 259°
2026-05-07 19:26 21.31066 113.65815 30218 ft 436 kts 259°
2026-05-07 19:27 21.30398 113.62634 30477 ft 438 kts 259°
2026-05-07 19:27 21.29730 113.59443 30727 ft 441 kts 259°
2026-05-07 19:27 21.29053 113.56224 30989 ft 443 kts 259°
2026-05-07 19:27 21.28376 113.52997 31249 ft 445 kts 259°
2026-05-07 19:28 21.27703 113.49792 31502 ft 447 kts 259°
2026-05-07 19:28 21.27019 113.46539 31786 ft 447 kts 259°
2026-05-07 19:28 21.26323 113.43243 32073 ft 448 kts 259°
2026-05-07 19:28 21.25635 113.39994 32402 ft 447 kts 259°
2026-05-07 19:29 21.24957 113.36785 32742 ft 446 kts 259°
2026-05-07 19:29 21.24272 113.33551 33069 ft 445 kts 259°
2026-05-07 19:29 21.23577 113.30272 33348 ft 445 kts 259°
2026-05-07 19:29 21.22892 113.27041 33630 ft 445 kts 259°
2026-05-07 19:30 21.22438 113.24901 33806 ft 444 kts 259°
2026-05-07 19:30 21.21753 113.21678 34054 ft 444 kts 259°
2026-05-07 19:30 21.21068 113.18458 34295 ft 444 kts 259°
2026-05-07 19:30 21.20381 113.15233 34559 ft 443 kts 259°
2026-05-07 19:31 21.19695 113.12016 34805 ft 442 kts 259°
2026-05-07 19:31 21.19012 113.08809 35047 ft 442 kts 259°
2026-05-07 19:31 21.18329 113.05606 35294 ft 441 kts 259°
2026-05-07 19:31 21.17644 113.02403 35507 ft 441 kts 259°
2026-05-07 19:32 21.16960 112.99207 35729 ft 440 kts 259°
2026-05-07 19:32 21.16277 112.96017 35940 ft 439 kts 259°
2026-05-07 19:32 21.15594 112.92824 36055 ft 440 kts 259°
2026-05-07 19:32 21.14911 112.89637 36060 ft 439 kts 259°
2026-05-07 19:33 21.13543 112.83262 36036 ft 439 kts 259°
2026-05-07 19:33 21.12173 112.76895 36030 ft 439 kts 259°
2026-05-07 19:34 21.10801 112.70519 36032 ft 440 kts 259°
2026-05-07 19:34 21.09420 112.64130 36031 ft 441 kts 259°
2026-05-07 19:35 21.08038 112.57740 36027 ft 440 kts 259°
2026-05-07 19:35 21.06655 112.51356 36030 ft 440 kts 259°
2026-05-07 19:36 21.05267 112.44971 36030 ft 440 kts 259°
2026-05-07 19:36 21.03877 112.38589 36032 ft 441 kts 259°
2026-05-07 19:37 21.02487 112.32212 36032 ft 440 kts 259°
2026-05-07 19:37 21.01093 112.25823 36028 ft 441 kts 259°
2026-05-07 19:38 20.99695 112.19439 36022 ft 441 kts 259°
2026-05-07 19:38 20.98296 112.13061 36020 ft 440 kts 259°
2026-05-07 19:39 20.96892 112.06670 36022 ft 441 kts 259°
2026-05-07 19:39 20.95485 112.00283 36022 ft 441 kts 259°
2026-05-07 19:40 20.94075 111.93897 36021 ft 442 kts 259°
2026-05-07 19:40 20.92665 111.87509 36020 ft 441 kts 259°
2026-05-07 19:41 20.91249 111.81116 36020 ft 442 kts 259°
2026-05-07 19:41 20.89833 111.74729 36021 ft 442 kts 259°
2026-05-07 19:42 20.88413 111.68335 36020 ft 441 kts 259°
2026-05-07 19:42 20.86991 111.61945 36020 ft 442 kts 259°
2026-05-07 19:43 20.85568 111.55561 36021 ft 442 kts 258°
2026-05-07 19:43 20.84060 111.49229 36018 ft 444 kts 254°
2026-05-07 19:44 20.81997 111.43015 36021 ft 444 kts 252°
2026-05-07 19:44 20.79910 111.36812 36020 ft 443 kts 252°
2026-05-07 19:45 20.77825 111.30606 36012 ft 443 kts 252°
2026-05-07 19:45 20.75742 111.24410 36008 ft 443 kts 252°
2026-05-07 19:46 20.73658 111.18216 36009 ft 443 kts 252°
2026-05-07 19:46 20.71570 111.12019 36009 ft 443 kts 252°
2026-05-07 19:47 20.69478 111.05822 36010 ft 444 kts 252°
2026-05-07 19:47 20.67380 110.99614 36011 ft 444 kts 252°
2026-05-07 19:48 20.65284 110.93417 36010 ft 444 kts 252°
2026-05-07 19:48 20.63189 110.87217 36008 ft 443 kts 252°
2026-05-07 19:49 20.61115 110.81020 36011 ft 443 kts 252°
2026-05-07 19:49 20.59035 110.74827 36009 ft 443 kts 252°
2026-05-07 19:50 20.56953 110.68646 36008 ft 443 kts 252°
2026-05-07 19:50 20.54867 110.62456 36009 ft 444 kts 252°
2026-05-07 19:51 20.52779 110.56265 36010 ft 445 kts 252°
2026-05-07 19:51 20.50560 110.50112 36004 ft 446 kts 245°
2026-05-07 19:52 20.46928 110.44707 36011 ft 450 kts 233°
2026-05-07 19:52 20.42928 110.39563 36009 ft 451 kts 233°
2026-05-07 19:53 20.38952 110.34387 36009 ft 451 kts 233°
2026-05-07 19:53 20.34989 110.29204 36011 ft 451 kts 233°
2026-05-07 19:54 20.31023 110.24021 36012 ft 451 kts 233°
2026-05-07 19:54 20.27091 110.18820 36011 ft 451 kts 234°
2026-05-07 19:55 20.23187 110.13587 36013 ft 451 kts 234°
2026-05-07 19:55 20.19273 110.08363 36009 ft 451 kts 234°
2026-05-07 19:56 20.15351 110.03140 36014 ft 452 kts 234°
2026-05-07 19:56 20.11431 109.97919 36013 ft 451 kts 234°
2026-05-07 19:57 20.07505 109.92701 36011 ft 451 kts 234°
2026-05-07 19:57 20.03620 109.87538 36010 ft 450 kts 234°
2026-05-07 19:58 19.99706 109.82343 36010 ft 450 kts 234°
2026-05-07 19:58 19.95789 109.77147 36009 ft 451 kts 234°
2026-05-07 19:59 19.91873 109.71957 36008 ft 450 kts 234°
2026-05-07 19:59 19.87948 109.66764 36008 ft 450 kts 234°
2026-05-07 20:00 19.84025 109.61577 36007 ft 450 kts 234°
2026-05-07 20:00 19.80078 109.56357 36010 ft 450 kts 234°
2026-05-07 20:01 19.76155 109.51179 36010 ft 450 kts 234°
2026-05-07 20:01 19.72249 109.46025 36009 ft 450 kts 234°
2026-05-07 20:02 19.68323 109.40849 36013 ft 450 kts 234°
2026-05-07 20:02 19.64394 109.35674 36011 ft 450 kts 234°
2026-05-07 20:03 19.60466 109.30504 36010 ft 450 kts 234°
2026-05-07 20:03 19.56535 109.25338 36012 ft 450 kts 234°
2026-05-07 20:04 19.52602 109.20169 36008 ft 451 kts 234°
2026-05-07 20:04 19.48655 109.15024 36008 ft 450 kts 233°
2026-05-07 20:05 19.44689 109.09888 36014 ft 450 kts 233°
2026-05-07 20:05 19.40724 109.04751 36010 ft 450 kts 233°
2026-05-07 20:06 19.36761 108.99621 36008 ft 450 kts 233°
2026-05-07 20:06 19.32790 108.94480 36008 ft 450 kts 233°
2026-05-07 20:07 19.28825 108.89352 36007 ft 450 kts 233°
2026-05-07 20:07 19.24857 108.84228 36007 ft 450 kts 233°
2026-05-07 20:08 19.20890 108.79109 36008 ft 449 kts 233°
2026-05-07 20:08 19.16927 108.73992 36008 ft 449 kts 233°
2026-05-07 20:09 19.12965 108.68885 36010 ft 449 kts 233°
2026-05-07 20:10 19.07011 108.61217 36010 ft 450 kts 233°
2026-05-07 20:10 19.03038 108.56106 36010 ft 450 kts 233°
2026-05-07 20:11 18.99061 108.50993 36011 ft 450 kts 233°
2026-05-07 20:11 18.95083 108.45887 36011 ft 451 kts 233°
2026-05-07 20:12 18.91099 108.40774 36006 ft 451 kts 233°
2026-05-07 20:12 18.87121 108.35672 36008 ft 450 kts 233°
2026-05-07 20:13 18.83138 108.30575 36010 ft 450 kts 233°
2026-05-07 20:13 18.79152 108.25474 36010 ft 450 kts 233°
2026-05-07 20:14 18.75840 108.21237 36013 ft 450 kts 233°
2026-05-07 20:14 18.71852 108.16142 36012 ft 450 kts 233°
2026-05-07 20:15 18.67867 108.11052 36000 ft 451 kts 233°
2026-05-07 20:15 18.63873 108.05952 36002 ft 451 kts 233°
2026-05-07 20:16 18.59880 108.00865 36001 ft 450 kts 233°
2026-05-07 20:16 18.55885 107.95776 36003 ft 450 kts 233°
2026-05-07 20:17 18.51888 107.90688 36002 ft 451 kts 233°
2026-05-07 20:17 18.47889 107.85602 36001 ft 451 kts 233°
2026-05-07 20:18 18.43891 107.80524 35997 ft 450 kts 233°
2026-05-07 20:18 18.39891 107.75443 35998 ft 451 kts 233°
2026-05-07 20:19 18.35891 107.70365 36001 ft 451 kts 233°
2026-05-07 20:19 18.32244 107.65038 36002 ft 448 kts 240°
2026-05-07 20:20 18.28916 107.59506 35995 ft 447 kts 240°
2026-05-07 20:20 18.25585 107.53980 35990 ft 447 kts 240°
2026-05-07 20:21 18.22250 107.48462 35993 ft 447 kts 240°
2026-05-07 20:21 18.18909 107.42945 35987 ft 447 kts 240°
2026-05-07 20:22 18.15586 107.37467 35989 ft 447 kts 240°
2026-05-07 20:22 18.12246 107.31965 35992 ft 446 kts 240°
2026-05-07 20:23 18.08907 107.26463 35990 ft 446 kts 240°
2026-05-07 20:23 18.05545 107.20930 35995 ft 446 kts 240°
2026-05-07 20:24 18.02198 107.15435 35988 ft 446 kts 240°
2026-05-07 20:24 17.98852 107.09949 35991 ft 446 kts 240°
2026-05-07 20:25 17.95495 107.04454 35991 ft 447 kts 240°
2026-05-07 20:25 17.92138 106.98950 35991 ft 448 kts 240°
2026-05-07 20:26 17.88771 106.93440 35985 ft 448 kts 240°
2026-05-07 20:26 17.85419 106.87933 35989 ft 447 kts 240°
2026-05-07 20:27 17.82074 106.82428 35994 ft 447 kts 240°
2026-05-07 20:27 17.78731 106.76930 35986 ft 447 kts 239°
2026-05-07 20:28 17.75387 106.71434 35981 ft 447 kts 239°
2026-05-07 20:28 17.72040 106.65942 35991 ft 446 kts 239°
2026-05-07 20:29 17.68696 106.60458 35995 ft 446 kts 239°
2026-05-07 20:29 17.65347 106.54979 35991 ft 446 kts 239°
2026-05-07 20:30 17.62006 106.49540 35990 ft 447 kts 239°
2026-05-07 20:30 17.58644 106.44066 35983 ft 446 kts 239°
2026-05-07 20:31 17.55288 106.38597 35980 ft 447 kts 239°
2026-05-07 20:31 17.51930 106.33129 35981 ft 447 kts 239°
2026-05-07 20:32 17.48565 106.27662 35980 ft 446 kts 239°
2026-05-07 20:32 17.45206 106.22198 35980 ft 446 kts 239°
2026-05-07 20:33 17.41839 106.16735 35982 ft 446 kts 239°
2026-05-07 20:33 17.38471 106.11275 35980 ft 446 kts 239°
2026-05-07 20:34 17.35116 106.05816 35980 ft 446 kts 239°
2026-05-07 20:34 17.31799 106.00320 35980 ft 446 kts 240°
2026-05-07 20:35 17.28479 105.94826 35980 ft 447 kts 239°
2026-05-07 20:35 17.25150 105.89331 35979 ft 446 kts 239°
2026-05-07 20:36 17.21821 105.83844 35981 ft 447 kts 239°
2026-05-07 20:36 17.18487 105.78352 35980 ft 447 kts 239°
2026-05-07 20:37 17.15147 105.72862 35981 ft 448 kts 239°
2026-05-07 20:37 17.11804 105.67366 35980 ft 448 kts 239°
2026-05-07 20:38 17.08458 105.61872 35980 ft 448 kts 239°
2026-05-07 20:38 17.05113 105.56377 35980 ft 448 kts 239°
2026-05-07 20:39 17.01766 105.50884 35980 ft 449 kts 239°
2026-05-07 20:39 16.98410 105.45385 35980 ft 449 kts 239°
2026-05-07 20:40 16.95053 105.39893 35981 ft 449 kts 239°
2026-05-07 20:40 16.91696 105.34400 35981 ft 449 kts 239°
2026-05-07 20:41 16.88334 105.28904 35980 ft 449 kts 239°
2026-05-07 20:41 16.84970 105.23404 35979 ft 449 kts 239°
2026-05-07 20:42 16.81600 105.17909 35981 ft 449 kts 239°
2026-05-07 20:42 16.78226 105.12421 35980 ft 449 kts 239°
2026-05-07 20:43 16.74853 105.06936 35980 ft 449 kts 239°
2026-05-07 20:43 16.71477 105.01444 35980 ft 450 kts 239°
2026-05-07 20:44 16.68099 104.95957 35981 ft 450 kts 239°
2026-05-07 20:44 16.64713 104.90460 35980 ft 450 kts 239°
2026-05-07 20:45 16.61347 104.85003 35981 ft 451 kts 239°
2026-05-07 20:45 16.57957 104.79509 35979 ft 451 kts 239°
2026-05-07 20:46 16.54182 104.74277 35981 ft 454 kts 230°
2026-05-07 20:46 16.49962 104.69381 35980 ft 454 kts 230°
2026-05-07 20:47 16.45738 104.64483 35977 ft 455 kts 230°
2026-05-07 20:47 16.41524 104.59581 35971 ft 455 kts 230°
2026-05-07 20:48 16.37299 104.54671 35971 ft 455 kts 230°
2026-05-07 20:48 16.33076 104.49763 35962 ft 455 kts 230°
2026-05-07 20:49 16.28847 104.44854 35959 ft 455 kts 230°
2026-05-07 20:49 16.24610 104.39958 35955 ft 455 kts 230°
2026-05-07 20:50 16.20341 104.35090 35951 ft 456 kts 230°
2026-05-07 20:50 16.16068 104.30212 35949 ft 456 kts 230°
2026-05-07 20:51 16.11793 104.25332 35951 ft 457 kts 230°
2026-05-07 20:51 16.07516 104.20447 35949 ft 457 kts 229°
2026-05-07 20:52 16.03255 104.15548 35950 ft 457 kts 230°
2026-05-07 20:52 15.99042 104.10612 35950 ft 457 kts 230°
2026-05-07 20:53 15.94814 104.05677 35950 ft 457 kts 230°
2026-05-07 20:53 15.90587 104.00753 35950 ft 456 kts 230°
2026-05-07 20:54 15.86360 103.95831 35950 ft 456 kts 230°
2026-05-07 20:54 15.82139 103.90921 35950 ft 456 kts 230°
2026-05-07 20:55 15.77910 103.86003 35950 ft 457 kts 230°
2026-05-07 20:55 15.73674 103.81082 35951 ft 457 kts 230°
2026-05-07 20:56 15.69441 103.76169 35952 ft 457 kts 230°
2026-05-07 20:56 15.65205 103.71254 35950 ft 457 kts 230°
2026-05-07 20:57 15.60963 103.66335 35950 ft 457 kts 230°
2026-05-07 20:57 15.56792 103.61506 35951 ft 457 kts 230°
2026-05-07 20:58 15.53201 103.57347 35952 ft 457 kts 230°
2026-05-07 20:58 15.48961 103.52443 35949 ft 457 kts 230°
2026-05-07 20:59 15.44719 103.47535 35950 ft 457 kts 230°
2026-05-07 20:59 15.40478 103.42635 35949 ft 456 kts 230°
2026-05-07 21:00 15.36239 103.37737 35949 ft 456 kts 230°
2026-05-07 21:00 15.31996 103.32841 35950 ft 456 kts 230°
2026-05-07 21:01 15.27762 103.27952 35952 ft 456 kts 230°
2026-05-07 21:01 15.23515 103.23062 35951 ft 456 kts 230°
2026-05-07 21:02 15.19276 103.18180 35949 ft 456 kts 230°
2026-05-07 21:02 15.15032 103.13294 35949 ft 456 kts 230°
2026-05-07 21:03 15.10759 103.08376 35949 ft 456 kts 230°
2026-05-07 21:03 15.06540 103.03528 35950 ft 456 kts 229°
2026-05-07 21:04 15.01666 102.99325 35953 ft 461 kts 213°
2026-05-07 21:04 14.96112 102.95955 35951 ft 459 kts 211°
2026-05-07 21:05 14.90598 102.92614 35950 ft 459 kts 212°
2026-05-07 21:05 14.85135 102.89269 35959 ft 460 kts 212°
2026-05-07 21:06 14.79609 102.85886 35959 ft 458 kts 212°
2026-05-07 21:06 14.74155 102.82554 35960 ft 458 kts 212°
2026-05-07 21:07 14.68670 102.79202 35961 ft 458 kts 212°
2026-05-07 21:07 14.63191 102.75849 35960 ft 457 kts 212°
2026-05-07 21:08 14.57679 102.72566 35961 ft 458 kts 211°
2026-05-07 21:08 14.52131 102.69293 35966 ft 461 kts 211°
2026-05-07 21:09 14.46567 102.65997 35970 ft 462 kts 211°
2026-05-07 21:09 14.41000 102.62697 35970 ft 462 kts 211°
2026-05-07 21:10 14.35435 102.59407 35962 ft 461 kts 210°
2026-05-07 21:10 14.29847 102.56130 35960 ft 462 kts 210°
2026-05-07 21:11 14.24268 102.52860 35961 ft 461 kts 210°
2026-05-07 21:11 14.15903 102.47961 35961 ft 461 kts 210°
2026-05-07 21:12 14.10327 102.44695 35960 ft 461 kts 210°
2026-05-07 21:12 14.04748 102.41428 35960 ft 461 kts 210°
2026-05-07 21:13 13.99173 102.38164 35961 ft 460 kts 210°
2026-05-07 21:13 13.93604 102.34906 35961 ft 461 kts 210°
2026-05-07 21:14 13.88027 102.31648 35961 ft 461 kts 210°
2026-05-07 21:14 13.82450 102.28393 35952 ft 460 kts 210°
2026-05-07 21:15 13.76878 102.25146 35943 ft 461 kts 210°
2026-05-07 21:15 13.71294 102.21893 35942 ft 461 kts 210°
2026-05-07 21:16 13.65711 102.18647 35941 ft 461 kts 210°
2026-05-07 21:16 13.60132 102.15404 35940 ft 461 kts 210°
2026-05-07 21:17 13.54556 102.12166 35940 ft 460 kts 210°
2026-05-07 21:17 13.48990 102.08934 35946 ft 459 kts 210°
2026-05-07 21:18 13.43425 102.05706 35939 ft 459 kts 210°
2026-05-07 21:18 13.37864 102.02483 35940 ft 459 kts 210°
2026-05-07 21:19 13.32300 101.99256 35944 ft 459 kts 210°
2026-05-07 21:19 13.26734 101.96029 35941 ft 459 kts 210°
2026-05-07 21:20 13.21175 101.92811 35946 ft 459 kts 210°
2026-05-07 21:20 13.15623 101.89583 35943 ft 459 kts 210°
2026-05-07 21:21 13.10074 101.86358 35955 ft 458 kts 210°
2026-05-07 21:21 13.04529 101.83140 35941 ft 458 kts 210°
2026-05-07 21:22 12.98980 101.79943 35935 ft 457 kts 210°
2026-05-07 21:22 12.93440 101.76737 35938 ft 457 kts 210°
2026-05-07 21:23 12.87916 101.73507 35935 ft 457 kts 210°
2026-05-07 21:23 12.82390 101.70284 35935 ft 457 kts 210°
2026-05-07 21:24 12.77220 101.66538 35933 ft 456 kts 226°
2026-05-07 21:24 12.73367 101.61403 35935 ft 455 kts 235°
2026-05-07 21:25 12.69713 101.56116 35926 ft 455 kts 235°
2026-05-07 21:25 12.66018 101.50862 35931 ft 455 kts 234°
2026-05-07 21:26 12.62310 101.45612 35936 ft 455 kts 234°
2026-05-07 21:26 12.58603 101.40368 35932 ft 455 kts 234°
2026-05-07 21:27 12.54889 101.35119 35924 ft 455 kts 234°
2026-05-07 21:27 12.51172 101.29871 35921 ft 456 kts 234°
2026-05-07 21:28 12.47455 101.24628 35920 ft 456 kts 234°
2026-05-07 21:28 12.43729 101.19375 35920 ft 456 kts 234°
2026-05-07 21:29 12.40006 101.14127 35920 ft 456 kts 234°
2026-05-07 21:29 12.36281 101.08877 35919 ft 456 kts 234°
2026-05-07 21:30 12.32556 101.03637 35910 ft 456 kts 234°
2026-05-07 21:30 12.28826 100.98385 35911 ft 456 kts 234°
2026-05-07 21:31 12.25094 100.93139 35910 ft 456 kts 234°
2026-05-07 21:31 12.21355 100.87889 35910 ft 456 kts 234°
2026-05-07 21:32 12.17616 100.82637 35911 ft 457 kts 234°
2026-05-07 21:32 12.13883 100.77397 35910 ft 456 kts 234°
2026-05-07 21:33 12.10153 100.72163 35910 ft 456 kts 234°
2026-05-07 21:33 12.06417 100.66930 35911 ft 456 kts 234°
2026-05-07 21:34 12.02678 100.61685 35911 ft 457 kts 234°
2026-05-07 21:34 11.98649 100.56679 35910 ft 457 kts 224°
2026-05-07 21:35 11.94009 100.52245 35910 ft 457 kts 223°
2026-05-07 21:35 11.89357 100.47820 35909 ft 457 kts 223°
2026-05-07 21:36 11.84722 100.43388 35909 ft 457 kts 223°
2026-05-07 21:36 11.80081 100.38951 35910 ft 457 kts 223°
2026-05-07 21:37 11.75442 100.34521 35910 ft 457 kts 223°
2026-05-07 21:37 11.70807 100.30091 35916 ft 456 kts 223°
2026-05-07 21:38 11.66168 100.25658 35920 ft 457 kts 223°
2026-05-07 21:38 11.62312 100.21980 35920 ft 457 kts 223°
2026-05-07 21:39 11.57669 100.17554 35919 ft 457 kts 223°
2026-05-07 21:39 11.53026 100.13130 35920 ft 457 kts 223°
2026-05-07 21:40 11.48384 100.08712 35920 ft 456 kts 223°
2026-05-07 21:40 11.43744 100.04293 35926 ft 456 kts 223°
2026-05-07 21:41 11.39104 99.99871 35934 ft 457 kts 223°
2026-05-07 21:41 11.34464 99.95459 35940 ft 456 kts 223°
2026-05-07 21:42 11.29826 99.91052 35940 ft 455 kts 223°
2026-05-07 21:42 11.25197 99.86651 35940 ft 455 kts 223°
2026-05-07 21:43 11.20566 99.82248 35940 ft 455 kts 223°
2026-05-07 21:43 11.15916 99.77875 35938 ft 454 kts 219°
2026-05-07 21:44 11.13311 99.76072 35934 ft 453 kts 206°
2026-05-07 21:44 11.10388 99.74888 35943 ft 453 kts 197°
2026-05-07 21:44 11.04363 99.73062 35950 ft 451 kts 196°
2026-05-07 21:45 10.98352 99.71217 35950 ft 451 kts 196°
2026-05-07 21:45 10.92349 99.69336 35951 ft 451 kts 197°
2026-05-07 21:46 10.86352 99.67458 35951 ft 451 kts 196°
2026-05-07 21:46 10.80360 99.65585 35950 ft 450 kts 196°
2026-05-07 21:47 10.74375 99.63713 35960 ft 450 kts 196°
2026-05-07 21:47 10.68352 99.61829 35958 ft 449 kts 196°
2026-05-07 21:48 10.62419 99.59974 35951 ft 449 kts 196°
2026-05-07 21:48 10.56447 99.58108 35950 ft 449 kts 196°
2026-05-07 21:49 10.50483 99.56245 35950 ft 449 kts 196°
2026-05-07 21:49 10.44513 99.54380 35950 ft 449 kts 196°
2026-05-07 21:50 10.38550 99.52517 35950 ft 448 kts 196°
2026-05-07 21:50 10.32589 99.50658 35950 ft 448 kts 196°
2026-05-07 21:51 10.26630 99.48800 35950 ft 448 kts 196°
2026-05-07 21:51 10.20671 99.46942 35950 ft 448 kts 196°
2026-05-07 21:52 10.14718 99.45086 35950 ft 447 kts 196°
2026-05-07 21:52 10.08770 99.43235 35950 ft 447 kts 196°
2026-05-07 21:53 10.02848 99.41391 35650 ft 444 kts 196°
2026-05-07 21:53 9.99897 99.40471 35376 ft 445 kts 196°
2026-05-07 21:53 9.96935 99.39548 35119 ft 445 kts 196°
2026-05-07 21:54 9.93984 99.38630 34866 ft 443 kts 196°
2026-05-07 21:54 9.91040 99.37714 34614 ft 441 kts 196°
2026-05-07 21:54 9.88115 99.36803 34362 ft 439 kts 196°
2026-05-07 21:54 9.85195 99.35893 34111 ft 438 kts 196°
2026-05-07 21:55 9.82288 99.34991 33859 ft 436 kts 196°
2026-05-07 21:55 9.79388 99.34090 33593 ft 434 kts 196°
2026-05-07 21:55 9.76513 99.33197 33182 ft 431 kts 196°
2026-05-07 21:55 9.73659 99.32311 32684 ft 428 kts 196°
2026-05-07 21:56 9.70820 99.31433 32166 ft 426 kts 196°
2026-05-07 21:56 9.67992 99.30556 31617 ft 424 kts 196°
2026-05-07 21:56 9.65173 99.29682 31090 ft 422 kts 196°
2026-05-07 21:56 9.62369 99.28812 30572 ft 421 kts 196°
2026-05-07 21:57 9.59576 99.27946 30071 ft 419 kts 196°
2026-05-07 21:57 9.56798 99.27082 29573 ft 417 kts 196°
2026-05-07 21:57 9.54036 99.26222 29051 ft 415 kts 196°
2026-05-07 21:57 9.51281 99.25364 28535 ft 413 kts 196°
2026-05-07 21:58 9.48540 99.24513 28039 ft 410 kts 196°
2026-05-07 21:58 9.45819 99.23668 27551 ft 408 kts 195°
2026-05-07 21:58 9.43114 99.22829 27052 ft 405 kts 195°
2026-05-07 21:58 9.40426 99.21995 26545 ft 404 kts 195°
2026-05-07 21:59 9.37742 99.21165 26033 ft 402 kts 195°
2026-05-07 21:59 9.35081 99.20340 25531 ft 399 kts 195°
2026-05-07 21:59 9.32428 99.19513 25050 ft 397 kts 196°
2026-05-07 21:59 9.29799 99.18694 24561 ft 395 kts 196°
2026-05-07 22:00 9.27185 99.17882 24054 ft 393 kts 195°
2026-05-07 22:00 9.24576 99.17073 23544 ft 391 kts 195°
2026-05-07 22:00 9.21983 99.16269 23061 ft 388 kts 195°
2026-05-07 22:00 9.19410 99.15471 22561 ft 387 kts 195°
2026-05-07 22:01 9.16849 99.14678 22023 ft 383 kts 195°
2026-05-07 22:01 9.14316 99.13881 21512 ft 380 kts 197°
2026-05-07 22:01 9.11961 99.12708 21017 ft 378 kts 213°
2026-05-07 22:01 9.09894 99.11086 20548 ft 374 kts 218°
2026-05-07 22:02 9.07904 99.09412 20080 ft 370 kts 218°
2026-05-07 22:02 9.05936 99.07762 19645 ft 365 kts 218°
2026-05-07 22:02 9.03987 99.06145 19225 ft 360 kts 217°
2026-05-07 22:02 9.02058 99.04555 18813 ft 355 kts 217°
2026-05-07 22:03 9.00154 99.02995 18404 ft 350 kts 217°
2026-05-07 22:03 8.98271 99.01452 18002 ft 346 kts 217°
2026-05-07 22:03 8.96412 98.99930 17625 ft 344 kts 217°
2026-05-07 22:03 8.94556 98.98411 17251 ft 344 kts 217°
2026-05-07 22:04 8.92695 98.96888 16870 ft 344 kts 217°
2026-05-07 22:04 8.90834 98.95365 16485 ft 344 kts 217°
2026-05-07 22:04 8.88975 98.93844 16108 ft 343 kts 217°
2026-05-07 22:04 8.87122 98.92328 15733 ft 342 kts 217°
2026-05-07 22:05 8.85276 98.90818 15383 ft 341 kts 217°
2026-05-07 22:05 8.83433 98.89310 15035 ft 340 kts 217°
2026-05-07 22:05 8.81593 98.87805 14673 ft 339 kts 217°
2026-05-07 22:05 8.79758 98.86304 14295 ft 339 kts 217°
2026-05-07 22:06 8.77922 98.84808 13916 ft 339 kts 217°
2026-05-07 22:06 8.76088 98.83316 13558 ft 338 kts 217°
2026-05-07 22:06 8.74258 98.81828 13208 ft 337 kts 217°
2026-05-07 22:06 8.72436 98.80346 12864 ft 336 kts 217°
2026-05-07 22:07 8.70618 98.78868 12541 ft 333 kts 217°
2026-05-07 22:07 8.68837 98.77417 12265 ft 325 kts 217°
2026-05-07 22:07 8.67088 98.75994 11959 ft 322 kts 217°
2026-05-07 22:07 8.65349 98.74579 11640 ft 321 kts 217°
2026-05-07 22:08 8.63610 98.73167 11313 ft 321 kts 217°
2026-05-07 22:08 8.61869 98.71752 10981 ft 321 kts 217°
2026-05-07 22:08 8.60134 98.70341 10646 ft 320 kts 217°
2026-05-07 22:08 8.58421 98.68949 10400 ft 311 kts 217°
2026-05-07 22:09 8.56767 98.67605 10237 ft 300 kts 217°
2026-05-07 22:09 8.55170 98.66306 10067 ft 288 kts 217°
2026-05-07 22:09 8.53636 98.65058 9779 ft 280 kts 217°
2026-05-07 22:09 8.52123 98.63829 9350 ft 278 kts 217°
2026-05-07 22:10 8.50612 98.62617 8968 ft 277 kts 214°
2026-05-07 22:10 8.49001 98.61563 8702 ft 275 kts 210°
2026-05-07 22:10 8.47362 98.60572 8458 ft 274 kts 209°
2026-05-07 22:10 8.45729 98.59588 8182 ft 273 kts 209°
2026-05-07 22:11 8.44104 98.58607 7915 ft 272 kts 210°
2026-05-07 22:11 8.42488 98.57628 7646 ft 270 kts 210°
2026-05-07 22:11 8.40882 98.56655 7350 ft 269 kts 210°
2026-05-07 22:11 8.39283 98.55686 7088 ft 268 kts 210°
2026-05-07 22:12 8.37689 98.54718 6882 ft 267 kts 210°
2026-05-07 22:12 8.36044 98.53873 6672 ft 264 kts 195°
2026-05-07 22:12 8.34234 98.53717 6397 ft 261 kts 174°
2026-05-07 22:12 8.32436 98.53898 6092 ft 260 kts 172°
2026-05-07 22:13 8.30645 98.54095 5777 ft 258 kts 173°
2026-05-07 22:13 8.28861 98.54284 5480 ft 257 kts 173°
2026-05-07 22:13 8.27086 98.54463 5195 ft 256 kts 173°
2026-05-07 22:13 8.25324 98.54636 5011 ft 249 kts 173°
2026-05-07 22:14 8.23652 98.54797 4982 ft 233 kts 173°
2026-05-07 22:14 8.22080 98.54948 4839 ft 223 kts 173°
2026-05-07 22:14 8.20548 98.55096 4523 ft 220 kts 173°
2026-05-07 22:14 8.19027 98.55241 4208 ft 219 kts 174°
2026-05-07 22:15 8.17509 98.55385 3985 ft 219 kts 174°
2026-05-07 22:15 8.15991 98.55527 3838 ft 219 kts 174°
2026-05-07 22:15 8.14483 98.55429 3812 ft 220 kts 201°
2026-05-07 22:15 8.13296 98.54501 3667 ft 219 kts 238°
2026-05-07 22:16 8.12763 98.53072 3441 ft 218 kts 260°
2026-05-07 22:16 8.12607 98.51559 3176 ft 216 kts 268°
2026-05-07 22:16 8.12566 98.50092 3026 ft 201 kts 269°
2026-05-07 22:16 8.12525 98.48716 2797 ft 194 kts 268°
2026-05-07 22:17 8.12470 98.47366 2491 ft 192 kts 267°
2026-05-07 22:17 8.12387 98.46049 2332 ft 182 kts 266°
2026-05-07 22:17 8.12304 98.44816 2214 ft 172 kts 266°
2026-05-07 22:17 8.12222 98.43616 2161 ft 171 kts 266°
2026-05-07 22:18 8.12140 98.42423 2011 ft 170 kts 266°
2026-05-07 22:18 8.11980 98.40101 1576 ft 147 kts 266°
2026-05-07 22:18 8.11912 98.39111 1352 ft 140 kts 266°
2026-05-07 22:19 8.11845 98.38137 1163 ft 139 kts 266°
2026-05-07 22:19 8.11801 98.37493 1038 ft 139 kts 266°
2026-05-07 22:19 8.11734 98.36520 843 ft 138 kts 266°
2026-05-07 22:19 8.11667 98.35553 648 ft 138 kts 266°
2026-05-07 22:20 8.11602 98.34589 454 ft 137 kts 266°
2026-05-07 22:20 8.11536 98.33633 261 ft 137 kts 266°
2026-05-07 22:20 8.11470 98.32681 110 ft 133 kts 266°
2026-05-07 22:20 8.11394 98.31813 54 ft 111 kts 258°
2026-05-07 22:21 8.11289 98.31249 36 ft 52 kts 265°
2026-05-07 22:21 8.11260 98.31012 35 ft 16 kts 262°
2026-05-07 22:21 8.11247 98.30893 35 ft 18 kts 264°
2026-05-07 22:21 8.11236 98.30760 34 ft 20 kts 264°
2026-05-07 22:22 8.11223 98.30623 33 ft 19 kts 264°
2026-05-07 22:22 8.11210 98.30548 33 ft 9 kts 237°
2026-05-07 22:22 8.11146 98.30519 33 ft 11 kts 195°
2026-05-07 22:22 8.11061 98.30499 33 ft 14 kts 194°
2026-05-07 22:23 8.10960 98.30471 33 ft 16 kts 195°
2026-05-07 22:23 8.10844 98.30444 32 ft 18 kts 193°
2026-05-07 22:23 8.10719 98.30408 32 ft 19 kts 195°
2026-05-07 22:23 8.10603 98.30378 32 ft 12 kts 199°
2026-05-07 22:24 8.10579 98.30371 32 ft 2 kts 199°
2026-05-07 22:24 8.10557 98.30364 32 ft 4 kts 198°
2026-05-07 22:24 8.10524 98.30355 32 ft 6 kts 195°
2026-05-07 22:24 8.10482 98.30353 32 ft 7 kts 147°
2026-05-07 22:25 8.10462 98.30397 32 ft 5 kts 106°
2026-05-07 22:25 8.10455 98.30423 32 ft 0 kts 106°
2026-05-07 22:25 8.10454 98.30425 32 ft 0 kts 106°